FW5912 Weather Reports


Display with metric or nautical units.
time (UTC)temp
F
wind
direction
speed
MPH
gust
MPH
rain 1hr
in
rain 24hr
in
rain mn
in
humidity
%
barometer
mb
20260506033053 76 117 12.0 19.0 0.00 0.00 0.00 91 1011.0
20260506031553 76 132 12.0 18.0 0.00 0.00 0.00 91 1011.1
20260506030056 76 215 11.0 18.0 0.00 0.00 0.00 91 1010.9
20260506024559 76 143 13.0 19.0 0.00 0.00 0.00 91 1010.7
20260506023056 76 126 13.0 20.0 0.00 0.00 0.00 91 1010.5
20260506021603 76 140 13.0 21.0 0.00 0.00 0.00 91 1010.3
20260506020059 76 157 11.0 16.0 0.00 0.00 0.00 91 1010.1
20260506014554 76 149 12.0 18.0 0.00 0.00 0.00 91 1009.9
20260506013102 77 170 11.0 18.0 0.00 0.00 0.00 91 1009.6
20260506011603 77 144 11.0 16.0 0.00 0.00 0.00 91 1009.6
20260506010055 77 155 13.0 18.0 0.00 0.00 0.00 90 1009.5
20260506004552 77 144 10.0 16.0 0.00 0.00 0.00 90 1009.4
20260506003053 77 145 11.0 17.0 0.00 0.00 0.00 90 1009.5
20260506001554 77 170 12.0 17.0 0.00 0.00 0.00 89 1009.4
20260506000055 77 162 11.0 16.0 0.00 0.00 0.00 89 1009.4
20260505234606 78 142 11.0 19.0 0.00 0.00 0.00 88 1009.4
20260505233053 78 159 11.0 19.0 0.00 0.00 0.00 88 1009.3
20260505231606 78 157 12.0 17.0 0.00 0.00 0.00 87 1009.5
20260505230055 78 132 12.0 18.0 0.00 0.00 0.00 87 1009.6
20260505224556 79 151 10.0 17.0 0.00 0.00 0.00 87 1009.9
20260505223104 79 150 10.0 16.0 0.00 0.00 0.00 86 1009.8
20260505221559 79 144 11.0 15.0 0.00 0.00 0.00 85 1009.9
20260505220055 79 162 8.0 15.0 0.00 0.00 0.00 86 1010.0
20260505214613 80 159 9.0 15.0 0.00 0.00 0.00 85 1010.1
20260505213102 80 191 10.0 16.0 0.00 0.00 0.00 85 1010.1
20260505211606 80 213 8.0 16.0 0.00 0.00 0.00 84 1010.4
20260505210057 80 183 7.0 14.0 0.00 0.00 0.00 84 1010.6
20260505204553 80 202 8.0 15.0 0.00 0.00 0.00 85 1010.8
20260505203054 80 135 7.0 14.0 0.00 0.00 0.00 84 1011.0
20260505201558 80 168 8.0 17.0 0.00 0.00 0.00 84 1011.0
20260505194556 80 157 10.0 16.0 0.00 0.00 0.00 84 1011.0
20260505193052 80 159 10.0 17.0 0.00 0.00 0.00 84 1011.1
20260505191554 80 188 10.0 16.0 0.00 0.00 0.00 84 1011.0
20260505190100 80 145 9.0 15.0 0.00 0.00 0.00 84 1011.3
20260505184557 80 200 9.0 15.0 0.00 0.00 0.00 84 1011.5
20260505183104 80 155 11.0 17.0 0.00 0.00 0.00 85 1011.4
20260505181553 79 215 10.0 17.0 0.00 0.00 0.00 85 1011.4
20260505180059 79 156 9.0 16.0 0.00 0.00 0.00 85 1011.7
20260505174601 79 155 11.0 16.0 0.00 0.00 0.00 84 1011.6
20260505173054 80 208 8.0 15.0 0.00 0.00 0.00 84 1011.9
20260505171554 79 194 10.0 17.0 0.00 0.00 0.00 85 1011.9
20260505170057 79 180 9.0 16.0 0.00 0.00 0.00 84 1011.8
20260505164600 79 148 10.0 14.0 0.00 0.00 0.00 85 1012.0
20260505163056 79 148 9.0 17.0 0.00 0.00 0.00 84 1011.9
20260505161605 79 135 8.0 18.0 0.00 0.00 0.00 84 1011.8
20260505153108 79 219 9.0 17.0 0.00 0.00 0.00 84 1011.4
20260505151610 78 146 9.0 16.0 0.00 0.00 0.00 85 1011.6
20260505140113 76 172 12.0 21.0 0.00 0.00 0.00 87 1011.3
20260505124607 75 182 11.0 20.0 0.00 0.00 0.00 87 1010.9
20260505123057 75 144 11.0 18.0 0.00 0.00 0.00 87 1011.1
20260505121559 75 158 9.0 23.0 0.00 0.00 0.00 87 1011.0
20260505120058 75 183 11.0 18.0 0.00 0.00 0.00 87 1010.8
20260505114559 75 252 10.0 18.0 0.00 0.00 0.00 87 1010.8
20260505113123 75 204 11.0 17.0 0.00 0.00 0.00 87 1011.2
20260505111554 74 144 10.0 19.0 0.00 0.00 0.00 87 1010.6
20260505101556 75 147 10.0 18.0 0.00 0.00 0.00 86 1010.8
20260505100053 75 156 12.0 19.0 0.00 0.00 0.00 86 1010.9
20260505094552 74 217 11.0 18.0 0.00 0.00 0.00 85 1010.8
20260505093059 75 173 11.0 22.0 0.00 0.00 0.00 85 1010.8
20260505091605 74 201 10.0 19.0 0.00 0.00 0.00 85 1010.7
20260505090052 74 169 12.0 22.0 0.00 0.00 0.00 85 1010.7
20260505084555 74 160 13.0 20.0 0.00 0.00 0.00 85 1010.7
20260505083100 75 171 11.0 23.0 0.00 0.00 0.00 85 1010.9
20260505081605 75 205 12.0 22.0 0.00 0.00 0.00 85 1011.1
20260505080053 74 150 11.0 18.0 0.00 0.00 0.00 85 1011.2
20260505074553 74 132 12.0 23.0 0.00 0.00 0.00 84 1011.2
20260505073111 74 195 13.0 29.0 0.00 0.00 0.00 84 1011.4
20260505071602 74 159 11.0 22.0 0.00 0.00 0.00 84 1011.6
20260505064554 74 136 13.0 19.0 0.00 0.00 0.00 83 1012.1
20260505063053 74 153 13.0 22.0 0.00 0.00 0.00 83 1012.3
20260505061555 74 178 13.0 21.0 0.00 0.00 0.00 82 1012.2
20260505060056 74 146 12.0 21.0 0.00 0.00 0.00 83 1012.4
20260505054555 74 175 12.0 21.0 0.00 0.00 0.00 82 1012.4
20260505053057 74 142 12.0 20.0 0.00 0.00 0.00 82 1012.3
20260505051604 74 164 13.0 22.0 0.00 0.00 0.00 81 1012.6
20260505050106 74 186 12.0 19.0 0.00 0.00 0.00 81 1012.8
20260505041602 74 134 13.0 22.0 0.00 0.00 0.00 80 1013.1
20260505040056 74 142 12.0 23.0 0.00 0.00 0.00 80 1013.3
20260505034554 74 138 14.0 21.0 0.00 0.00 0.00 80 1013.2